AO-07 1 07530U 74089B 26144.99407814 -.00000035 00000-0 73511-4 0 9992 2 07530 101.9908 157.9986 0012313 173.6357 213.7594 12.53697625357611 UO-11 1 14781U 84021B 26144.86305443 .00001020 00000-0 10958-3 0 9995 2 14781 97.8043 110.7018 0006078 259.9463 100.1069 14.90717918253656 AO-27 1 22825U 93061C 26145.13470834 .00000071 00000-0 44160-4 0 9993 2 22825 98.6887 212.5554 0008777 160.9210 199.2303 14.30935001703709 FO-29 1 24278U 96046B 26145.09527947 -.00000010 00000-0 23951-4 0 9995 2 24278 98.5264 357.1281 0350287 156.2219 205.5556 13.53273136470044 GO-32 1 25397U 98043D 26144.95440618 .00000048 00000-0 40816-4 0 9999 2 25397 99.0063 137.1282 0000371 333.0816 27.0342 14.24423132448026 ISS 1 25544U 98067A 26145.16420519 .00009873 00000-0 18471-3 0 9997 2 25544 51.6330 54.0759 0007478 95.4333 264.7509 15.49361343568183 NO-44 1 26931U 01043C 26145.18011022 .00000113 00000-0 73257-4 0 9995 2 26931 67.0508 303.7778 0006182 263.8454 96.1944 14.31945949287158 SO-50 1 27607U 02058C 26145.16046367 .00000764 00000-0 10770-3 0 9993 2 27607 64.5514 200.2269 0075587 266.6862 92.5595 14.82990548261046 CO-55 1 27844U 03031E 26144.99570644 .00000230 00000-0 11839-3 0 9993 2 27844 98.6739 153.8464 0008353 250.3425 109.6853 14.24319183188375 RS-22 1 27939U 03042A 26145.20206781 .00000379 00000-0 66769-4 0 9990 2 27939 98.3475 328.9125 0011018 348.6255 130.9673 14.73418067212164 CO-65 1 32785U 08021C 26145.17779456 .00004510 00000-0 28765-3 0 9991 2 32785 97.8262 126.1242 0010640 104.7166 255.5242 15.09192180981723 CO-66 1 32791U 08021J 26144.95325825 .00016756 00000-0 54710-3 0 9994 2 32791 97.7523 141.7583 0004267 60.0915 300.0749 15.31833759983734 RS-30 1 32953U 08025A 26145.16221809 .00000024 00000-0 10473-3 0 9998 2 32953 82.5058 9.7638 0019844 4.7168 355.4095 12.43178323816838 SRMSAT 1 37841U 11058D 26145.16883983 .00000374 00000-0 58909-4 0 9991 2 37841 19.9704 198.7982 0011649 311.7443 74.5953 14.11570050754567 ZACUBE-1 1 39417U 13066B 26145.14329325 .00004071 00000-0 31850-3 0 9999 2 39417 97.8108 107.3549 0040393 329.4960 30.3915 15.00987824677274 Delfi-N3xt 1 39428U 13066N 26145.01898456 .00004824 00000-0 42614-3 0 9999 2 39428 97.8342 65.3555 0073194 284.4989 74.8119 14.94791242671162 GOMX-1 1 39430U 13066Q 26145.16945718 .00001614 00000-0 24774-3 0 9993 2 39430 97.6502 347.0844 0129409 150.8386 210.0128 14.69352090666535 LO-74 1 39440U 13066AA 26144.81738210 .00003331 00000-0 31087-3 0 9995 2 39440 97.8896 93.7028 0059584 104.3887 256.3956 14.93548951673506 AO-73 1 39444U 13066AE 26144.91922045 .00006550 00000-0 41119-3 0 9994 2 39444 97.8266 115.8865 0034518 283.8693 75.8695 15.09149207676151 DTUSAT-2 1 40030U 14033W 26144.92077954 .00006436 00000-0 35174-3 0 9990 2 40030 98.0868 141.1777 0006674 325.8981 34.1819 15.14666249649161 LILACSAT-2 1 40908U 15049K 26145.17584447 .00016053 00000-0 28199-3 0 9995 2 40908 97.4677 181.1540 0006205 353.9873 6.1303 15.50580403592183 Horyu-4 1 41340U 16012D 26144.61891200 .00192082 00000-0 90024-3 0 9996 2 41340 30.9873 250.1302 0003366 119.9378 240.1614 15.81556741567068 Lapan A3 1 41603U 16040E 26145.14984206 .00002864 00000-0 92197-4 0 9999 2 41603 97.1486 142.0565 0012244 97.2170 263.0465 15.32936827551286 CAS-2T 1 41847U 16066G 26145.10656347 .00001086 00000-0 16160-3 0 9995 2 41847 98.3824 221.1050 0341705 199.4078 159.3837 14.44611473501466 TechnoSat 1 42829U 17042E 26145.17642249 .00003228 00000-0 23215-3 0 9993 2 42829 97.4268 303.7165 0018148 167.8642 192.3026 15.04796520483247 AO-91 1 43017U 17073E 26145.11940745 .00010474 00000-0 45768-3 0 9991 2 43017 97.4741 12.8110 0153085 48.7405 312.6896 15.12237586461907 S-Net D 1 43186U 18014G 26144.70876464 .00003848 00000-0 20128-3 0 9994 2 43186 97.5379 49.6478 0010117 98.1552 262.0828 15.16410934455200 S-Net B 1 43187U 18014H 26144.98371347 .00004086 00000-0 21363-3 0 9992 2 43187 97.5385 49.9068 0010774 93.6237 266.6228 15.16384407455248 S-Net A 1 43188U 18014J 26144.70776347 .00003882 00000-0 20299-3 0 9992 2 43188 97.5394 49.8369 0010636 94.8809 265.3639 15.16418042455208 S-Net C 1 43189U 18014K 26145.18543375 .00004294 00000-0 22429-3 0 9994 2 43189 97.5414 50.3829 0012043 87.5621 272.6991 15.16378064453822 Ten-Koh 1 43677U 18084G 26145.08704637 .00002375 00000-0 18225-3 0 9999 2 43677 98.0756 336.4779 0009374 191.9139 168.1864 15.02811720412692 PO-101 1 43678U 18084H 26145.16168730 .00002159 00000-0 17717-3 0 9992 2 43678 98.1136 340.3777 0011607 249.1383 110.8597 15.00324226412760 QO-100 1 43700U 18090A 26145.16112906 .00000142 00000-0 00000 0 0 9992 2 43700 0.0361 104.4822 0001661 349.8921 232.1745 1.00273168 27446 MinXSS-2 1 43758U 18099A 26145.18024881 .00034893 00000-0 73473-3 0 9998 2 43758 97.4544 220.8193 0006319 357.4373 2.6842 15.45179555410574 AO-95 1 43770U 18099N 26145.13385266 .00010577 00000-0 41181-3 0 9998 2 43770 97.4400 205.4732 0010195 75.0152 285.2214 15.26130177409703 SNUSat 2 1 43782U 18099AA 26145.11999281 .00007264 00000-0 32606-3 0 9998 2 43782 97.4076 198.8630 0010635 26.5214 333.6564 15.21427291409523 SnugLite 1 43784U 18099AC 26145.14122694 .00010610 00000-0 40787-3 0 9997 2 43784 97.3887 199.6557 0003290 43.6641 316.4857 15.26592280409805 ITASat 1 1 43786U 18099AE 26145.09569214 .00006696 00000-0 32508-3 0 9997 2 43786 97.4047 197.0718 0014206 76.6272 283.6545 15.18708379409406 EAGLET 1 1 43790U 18099AJ 26145.10134337 .00003557 00000-0 20632-3 0 9996 2 43790 97.4250 195.3831 0012686 69.7087 290.5507 15.12730541408843 ESEO 1 43792U 18099AL 26145.09716742 .00001196 00000-0 90250-4 0 9993 2 43792 97.3994 183.4741 0013686 58.1401 302.1155 15.04167457408334 JO-97 1 43803U 18099AX 26145.12325517 .00017180 00000-0 54389-3 0 9998 2 43803 97.4146 207.8899 0005078 10.2287 349.9057 15.32808116410090 Suomi 100 1 43804U 18099AY 26145.15682784 .00011551 00000-0 42736-3 0 9993 2 43804 97.4207 205.6440 0009770 12.2176 347.9298 15.27802727409908 ISAT 1 43879U 18111D 26144.54018103 .00072535 00000-0 86226-3 0 9991 2 43879 97.5894 78.0209 0006436 60.3502 299.8394 15.60894925407471 UWE-4 1 43880U 18111E 26144.77470707 .00028353 00000-0 61165-3 0 9994 2 43880 97.5851 72.1148 0009926 60.2248 299.9986 15.44477012407166 Sparrow 1 43881U 18111F 26145.07498683 .00110229 00000-0 99141-3 0 9991 2 43881 97.6124 83.8398 0006740 92.0616 268.1417 15.67855866407743 Prox-1 1 44339U 19036A 26145.02468571 .00012369 00000-0 12228-2 0 9991 2 44339 23.9950 268.9077 0006581 119.7701 240.3454 14.89981024370017 Taurus 1 1 44530U 19059C 26145.19867486 .00004807 00000-0 77754-3 0 9999 2 44530 98.6403 308.6074 0008671 33.0158 327.1587 14.71803180355265 TO-108 1 44881U 19093C 26145.15812590 .00001044 00000-0 12400-3 0 9995 2 44881 97.7529 217.9513 0014069 157.0706 203.1141 14.86474737347995 RS-44 1 44909U 19096E 26145.09795720 .00000018 00000-0 26341-4 0 9997 2 44909 82.5226 355.0510 0217126 198.1070 161.2213 12.79748349299399 SALSAT 1 46495U 20068K 26144.98774177 .00007014 00000-0 24856-3 0 9991 2 46495 97.8855 146.6473 0010594 33.8053 326.3859 15.29404891311817 CSS (TIANHE-1) 1 48274U 21035A 26145.12651538 .00014225 00000-0 17567-3 0 9998 2 48274 41.4679 102.2354 0011060 276.8418 83.1162 15.59799573289560 CUTE 1 49263U 21088D 26145.00506419 .00257094 00000-0 12536-2 0 9992 2 49263 97.4190 242.2250 0003679 262.5615 97.5236 15.81668260258870 TeikyoSat 4 1 49396U 21102B 26145.05152964 .00001404 00000-0 91505-4 0 9990 2 49396 97.3685 175.4344 0012554 20.8330 339.3409 15.09411383249238 Z-Sat 1 49399U 21102E 26145.19512083 .00002894 00000-0 14495-3 0 9996 2 49399 97.3340 181.2174 0015672 333.2587 26.7837 15.18060574249957 KOSEN 1 1 49402U 21102H 26145.06993241 .00006574 00000-0 25441-3 0 9998 2 49402 97.3207 187.6803 0011903 291.3952 68.6016 15.26464520250499 HO-113 1 50466U 21131B 26145.21550950 .00000418 00000-0 14268-3 0 9991 2 50466 98.4962 237.7309 0004607 152.6416 207.5016 14.41331886231808 SNUGLITE 2 1 52899U 22065F 26144.93498272 .00000797 00000-0 16018-3 0 9991 2 52899 98.2174 289.8115 0008802 96.9418 263.2786 14.64295771207598 UmKA 1 (RS40S) 1 57172U 23091G 26145.19468272 .00005705 00000-0 26366-3 0 9997 2 57172 97.5065 203.9837 0012588 192.5498 167.5426 15.20507840160516 CubeBel-2 (EU11S) 1 57175U 23091K 26145.14524943 .00011220 00000-0 40629-3 0 9990 2 57175 97.5063 208.1656 0010063 187.2953 172.8142 15.28520004160784 RS-38S 1 57189U 23091Z 26145.14541519 .00016293 00000-0 47861-3 0 9993 2 57189 97.5102 214.1819 0008600 146.1328 214.0466 15.35175326161156 SONATE-2 1 59112U 24043Q 26145.14227891 .00037565 00000-0 52297-3 0 9997 2 59112 97.5510 294.1608 0005850 279.7869 80.2725 15.56848979124309 GRBBeta 1 60237U 24128C 26145.12246887 .00004206 00000-0 29231-3 0 9993 2 60237 61.9903 297.1771 0043861 129.8908 230.6054 15.06422482102794 Curium One 1 60242U 24128H 26144.76416050 .00008163 00000-0 47373-3 0 9992 2 60242 61.9791 288.7115 0043477 125.9418 234.5723 15.12086397102917 ROBUSTA-3A 1 60243U 24128J 26145.11304009 .00008558 00000-0 50682-3 0 9998 2 60243 61.9869 289.8206 0044560 123.5945 236.9416 15.11263722102935 CatSat 1 60246U 24125J 26145.13535513 .00054369 00000-0 77694-3 0 9999 2 60246 97.2117 357.3826 0021076 264.9784 94.9065 15.55814065103802 HYPERVIEW-1G (RS66S) 1 61772U 24199AP 26145.09511029 .00099686 00000-0 82719-3 0 9991 2 61772 97.2930 23.7469 0004830 25.2006 334.9491 15.69877032131046 AO-123 1 61781U 24199AY 26145.16077941 .00007451 00000-0 21901-3 0 9994 2 61781 97.3036 14.0416 0014962 38.0188 322.2108 15.35287987130398 JINJUSat 1B 1 63210U 25052A 26145.17129964 .00016110 00000-0 51239-3 0 9995 2 63210 97.4029 41.9057 0004384 138.6376 221.5198 15.32675020 66577 NUSHSAT 1 1 63211U 25052B 26145.18535095 .00020451 00000-0 60486-3 0 9990 2 63211 97.4007 42.4099 0004120 137.7707 222.3854 15.34937191 66617 TEVEL2-4 1 63213U 25052D 26144.96245656 .00016310 00000-0 50285-3 0 9993 2 63213 97.3932 41.3275 0003126 147.1092 213.0346 15.33670943 66550 TEVEL2-5 1 63214U 25052E 26144.65418350 .00015891 00000-0 49264-3 0 9991 2 63214 97.3929 40.9735 0003038 147.5060 212.6370 15.33501284 66502 TEVEL2-6 1 63215U 25052F 26144.99221472 .00016846 00000-0 52246-3 0 9991 2 63215 97.3933 41.2964 0003163 146.4393 213.7050 15.33474426 66551 TEVEL2-1 1 63217U 25052H 26145.14398839 .00017111 00000-0 53892-3 0 9997 2 63217 97.3906 41.0991 0002689 157.2132 202.9230 15.32981102 66568 TEVEL2-3 1 63218U 25052J 26145.13942102 .00016828 00000-0 52924-3 0 9994 2 63218 97.3907 41.1138 0002714 158.4259 201.7098 15.33030054 66567 TEVEL2-2 1 63219U 25052K 26144.68749553 .00014418 00000-0 45480-3 0 9991 2 63219 97.3903 40.6449 0002628 158.7421 201.3931 15.32970600 66494 TEVEL2-9 1 63237U 25052AD 26145.15794436 .00015408 00000-0 51499-3 0 9991 2 63237 97.3967 40.5389 0004981 204.9300 155.1701 15.31084761 66506 TEVEL2-7 1 63238U 25052AE 26145.12921649 .00014195 00000-0 47881-3 0 9999 2 63238 97.3970 40.4357 0005072 206.1899 153.9086 15.30807276 66497 TEVEL2-8 1 63239U 25052AF 26145.13721903 .00014408 00000-0 48619-3 0 9999 2 63239 97.3969 40.4213 0005047 206.9307 153.1673 15.30790295 66497 HYDRA-W 1 63490U 25052BL 26113.93882235 .05662091 24406-5 29537-2 0 9997 2 63490 97.3690 18.2798 0008685 203.5899 156.4993 16.20186780 62336 HADES-ICM (SO-125) 1 63492U 25052BN 26141.26653903 .06532167 24596-5 20834-2 0 9996 2 63492 97.3646 46.2798 0012082 212.8267 147.2275 16.26141053 66568 SPIRONE 1 66657U 25274H 26145.07348429 .00001931 00000-0 18886-3 0 9993 2 66657 97.7481 74.6973 0013776 90.9936 269.2862 14.93432707 26771 K-HERO 1 66660U 25274L 26145.08457641 .00001948 00000-0 18840-3 0 9993 2 66660 97.7489 74.8522 0015660 94.9296 265.3712 14.93856372 26782 SNUGLITE-III DURI 1 66661U 25274M 26145.07304917 .00001626 00000-0 15787-3 0 9990 2 66661 97.7486 74.8606 0016217 95.9260 264.3809 14.93906739 26783 SilverSat 1 66909U 98067XV 26113.44966717 .07226154 12288-4 11979-2 0 9998 2 66909 51.6027 190.0749 0007952 333.4666 26.5949 16.32457272 22308 SAKHACUBE-CHOLBON 1 67290U 25313AU 26145.18966295 .00009394 00000-0 38543-3 0 9993 2 67290 97.3939 220.5194 0010839 81.2148 279.0316 15.24397969 22472 RS95S (QMR-KWT-2) 1 67291U 25313AV 26144.93522436 .00013174 00000-0 52045-3 0 9995 2 67291 97.3938 220.3986 0010367 81.7267 278.5146 15.25582525 22449 Ten-Koh2 1 68261U 25241B 26145.06094150 .00007450 00000-0 32072-3 0 9993 2 68261 51.6618 69.6677 0006643 73.9925 286.1785 15.23568436 11380 JACK-002 1 68417U 26067B 26145.17475352 .00006337 00000-0 30554-3 0 9998 2 68417 97.4550 104.0573 0002885 44.6800 315.4666 15.19057049 8452 DISCO 2 1 68431U 26067R 26144.86110744 .00006565 00000-0 31998-3 0 9996 2 68431 97.4588 103.7383 0004373 82.7637 277.4095 15.18659766 8400 HADES-SA (SpinnyONE) 1 68446U 26067AG 26144.83060034 .00016667 00000-0 81764-3 0 9995 2 68446 97.4390 103.4941 0008557 140.1456 220.0407 15.18147324 8380 PARUS-6U1 1 68456U 26067AS 26144.84393892 .00005035 00000-0 25635-3 0 9990 2 68456 97.4538 103.5736 0006989 131.8282 228.3550 15.17230320 8398 SAL-E 1 68458U 26067AU 26144.84233524 .00006813 00000-0 34426-3 0 9990 2 68458 97.4464 103.5242 0007053 139.2688 220.9074 15.17368527 8395 FSI-SAT 2 1 68792U 26088A 26144.90916326 .00004065 00000-0 27789-3 0 9990 2 68792 97.5034 294.7608 0014625 182.1544 177.9623 15.06604175 4780 OrigamiSat 2 1 68795U 26088D 26145.14373050 .00003400 00000-0 22386-3 0 9991 2 68795 97.5019 295.0662 0016513 156.0809 204.1190 15.08088584 4821 ARICA 2 1 68796U 26088E 26145.14122424 .00004186 00000-0 27379-3 0 9998 2 68796 97.5038 295.0600 0016639 152.7668 207.4437 15.08201458 4827 WASEDA-SAT-ZERO-II 1 68797U 26088F 26145.13958192 .00005969 00000-0 38731-3 0 9991 2 68797 97.5036 295.0618 0016573 152.6531 207.5573 15.08324860 4825 MANGARO-II-Piscus 1 68798U 26088G 26145.00032586 .00003109 00000-0 20210-3 0 9995 2 68798 97.5042 294.9448 0019914 156.6558 203.5579 15.08577085 4806 IO-86 1 40931U 25360.30710720 .00000000 00000-0 12800-3 0 00 2 40931 6.0006 332.5373 0012733 338.8432 8.1437 14.79075515 01 LILIUM-4 1 71922C 26067AC 26089.50133053 -.00014632 00000 0 -74472-3 0 04 2 71922 97.4497 49.1617 0004341 5.9603 355.7042 15.16896692 16